ITY883 LIMF-LFPG

Flight info

Callsign ITY883
Flight time N/A
Altitude 34000
Route KUKEV1Z KUKEV DCT MOLUS DCT UNKIR DCT GIVRI DCT TINIL TINIL9W
Aircraft A320/M-SDE3FGHIRWY/LB1

Departure

Time 2026-05-08 20:04
Airport Turin Airport (LIMF)

Arrival

Time N/A
Airport Charles de Gaulle International Airport (LFPG)
Time Latitude Longitude Altitude Speed Heading
2026-05-08 19:15 45.19223 7.64538 961 ft 0 kts 258°
2026-05-08 19:52 45.19226 7.64555 959 ft 3 kts 258°
2026-05-08 19:53 45.19230 7.64583 959 ft 3 kts 258°
2026-05-08 19:53 45.19234 7.64611 957 ft 3 kts 258°
2026-05-08 19:53 45.19238 7.64636 960 ft 3 kts 249°
2026-05-08 19:53 45.19247 7.64658 959 ft 3 kts 215°
2026-05-08 19:54 45.19264 7.64669 960 ft 2 kts 186°
2026-05-08 19:54 45.19269 7.64670 959 ft 0 kts 183°
2026-05-08 19:58 45.19268 7.64670 959 ft 1 kts 183°
2026-05-08 19:58 45.19240 7.64667 958 ft 6 kts 183°
2026-05-08 19:58 45.19186 7.64663 960 ft 9 kts 183°
2026-05-08 19:59 45.19115 7.64657 957 ft 11 kts 183°
2026-05-08 19:59 45.19037 7.64656 955 ft 12 kts 181°
2026-05-08 19:59 45.18950 7.64651 953 ft 13 kts 183°
2026-05-08 19:59 45.18847 7.64644 946 ft 17 kts 182°
2026-05-08 20:00 45.18726 7.64638 943 ft 18 kts 181°
2026-05-08 20:00 45.18644 7.64659 942 ft 0 kts 141°
2026-05-08 20:02 45.18632 7.64678 919 ft 11 kts 129°
2026-05-08 20:02 45.18616 7.64798 939 ft 13 kts 84°
2026-05-08 20:02 45.18658 7.64886 940 ft 10 kts 12°
2026-05-08 20:02 45.18699 7.64880 942 ft 0 kts 360°
2026-05-08 20:03 45.18707 7.64880 943 ft 15 kts 360°
2026-05-08 20:03 45.19079 7.64903 959 ft 88 kts
2026-05-08 20:03 45.19896 7.64953 970 ft 145 kts
2026-05-08 20:04 45.20988 7.65032 1350 ft 160 kts
2026-05-08 20:04 45.22114 7.65141 1998 ft 164 kts
2026-05-08 20:04 45.23285 7.65267 2479 ft 179 kts
2026-05-08 20:04 45.24609 7.65346 2793 ft 201 kts
2026-05-08 20:05 45.26038 7.65480 3295 ft 213 kts 13°
2026-05-08 20:05 45.27295 7.66657 3603 ft 237 kts 55°
2026-05-08 20:05 45.27749 7.68911 4250 ft 246 kts 93°
2026-05-08 20:05 45.27427 7.71318 5056 ft 252 kts 107°
2026-05-08 20:06 45.26844 7.73671 6030 ft 252 kts 111°
2026-05-08 20:06 45.26209 7.75988 6982 ft 252 kts 111°
2026-05-08 20:06 45.25585 7.78319 7812 ft 255 kts 110°
2026-05-08 20:06 45.24859 7.80628 8653 ft 258 kts 122°
2026-05-08 20:07 45.23789 7.82695 9491 ft 262 kts 128°
2026-05-08 20:07 45.22698 7.84780 10300 ft 265 kts 127°
2026-05-08 20:07 45.21637 7.86914 10944 ft 275 kts 121°
2026-05-08 20:07 45.20901 7.89545 11171 ft 301 kts 115°
2026-05-08 20:08 45.19523 7.91851 11391 ft 320 kts 149°
2026-05-08 20:08 45.17367 7.92797 11708 ft 337 kts 180°
2026-05-08 20:08 45.15083 7.91975 12176 ft 347 kts 211°
2026-05-08 20:08 45.13373 7.89578 12857 ft 351 kts 240°
2026-05-08 20:09 45.12664 7.86297 13624 ft 354 kts 267°
2026-05-08 20:09 45.13036 7.82857 14023 ft 357 kts 291°
2026-05-08 20:09 45.14416 7.79950 14253 ft 361 kts 315°
2026-05-08 20:09 45.16506 7.78122 14122 ft 360 kts 341°
2026-05-08 20:10 45.18986 7.77805 14107 ft 362 kts
2026-05-08 20:10 45.21325 7.79075 14111 ft 364 kts 34°
2026-05-08 20:10 45.23159 7.81558 14111 ft 366 kts 47°
2026-05-08 20:10 45.25095 7.83871 14105 ft 365 kts 27°
2026-05-08 20:11 45.27514 7.84820 14110 ft 362 kts
2026-05-08 20:11 45.29955 7.84176 14109 ft 359 kts 334°
2026-05-08 20:11 45.31990 7.82163 14113 ft 358 kts 315°
2026-05-08 20:11 45.33644 7.79525 14106 ft 357 kts 306°
2026-05-08 20:12 45.35117 7.76737 14109 ft 358 kts 307°
2026-05-08 20:12 45.36665 7.73965 14108 ft 358 kts 308°
2026-05-08 20:12 45.38232 7.71206 14111 ft 359 kts 308°
2026-05-08 20:12 45.39801 7.68418 14240 ft 364 kts 307°
2026-05-08 20:13 45.41363 7.65591 15024 ft 361 kts 307°
2026-05-08 20:13 45.42856 7.62849 16391 ft 340 kts 306°
2026-05-08 20:13 45.44255 7.60255 17813 ft 320 kts 306°
2026-05-08 20:13 45.45564 7.57817 19109 ft 299 kts 306°
2026-05-08 20:14 45.46792 7.55530 20136 ft 286 kts 306°
2026-05-08 20:14 45.47995 7.53283 20805 ft 285 kts 306°
2026-05-08 20:14 45.49184 7.51058 21365 ft 287 kts 306°
2026-05-08 20:14 45.50396 7.48782 21908 ft 289 kts 306°
2026-05-08 20:15 45.51619 7.46486 22451 ft 293 kts 306°
2026-05-08 20:15 45.52855 7.44161 22977 ft 296 kts 306°
2026-05-08 20:15 45.54106 7.41809 23521 ft 298 kts 306°
2026-05-08 20:15 45.55366 7.39441 24022 ft 301 kts 306°
2026-05-08 20:16 45.56634 7.37058 24484 ft 302 kts 306°
2026-05-08 20:16 45.57908 7.34669 24959 ft 303 kts 306°
2026-05-08 20:16 45.59170 7.32301 25405 ft 305 kts 306°
2026-05-08 20:16 45.60454 7.29889 25857 ft 306 kts 306°
2026-05-08 20:17 45.61747 7.27460 26297 ft 308 kts 306°
2026-05-08 20:17 45.63054 7.25023 26771 ft 310 kts 308°
2026-05-08 20:17 45.64522 7.22761 27230 ft 312 kts 315°
2026-05-08 20:17 45.66191 7.20763 27685 ft 315 kts 322°
2026-05-08 20:18 45.68048 7.19058 28168 ft 319 kts 328°
2026-05-08 20:18 45.70059 7.17658 28584 ft 323 kts 332°
2026-05-08 20:18 45.72077 7.16333 28965 ft 324 kts 332°
2026-05-08 20:18 45.74137 7.14973 29370 ft 327 kts 332°
2026-05-08 20:19 45.76225 7.13594 29602 ft 336 kts 332°
2026-05-08 20:19 45.78376 7.12168 29750 ft 346 kts 332°
2026-05-08 20:19 45.80593 7.10695 29885 ft 356 kts 332°
2026-05-08 20:19 45.82869 7.09183 30045 ft 365 kts 332°
2026-05-08 20:20 45.85204 7.07634 30182 ft 375 kts 332°
2026-05-08 20:20 45.87593 7.06052 30308 ft 383 kts 332°
2026-05-08 20:20 45.90010 7.04450 30425 ft 391 kts 332°
2026-05-08 20:20 45.92496 7.02800 30551 ft 397 kts 332°
2026-05-08 20:21 45.95028 7.01115 30679 ft 405 kts 332°
2026-05-08 20:21 45.97603 6.99397 30808 ft 412 kts 332°
2026-05-08 20:21 46.00222 6.97649 30929 ft 418 kts 332°
2026-05-08 20:21 46.02879 6.95878 31051 ft 424 kts 332°
2026-05-08 20:22 46.05575 6.94078 31173 ft 429 kts 332°
2026-05-08 20:22 46.08287 6.92265 31355 ft 432 kts 332°
2026-05-08 20:22 46.11018 6.90441 31638 ft 432 kts 331°
2026-05-08 20:22 46.13707 6.88644 31899 ft 432 kts 331°
2026-05-08 20:23 46.16432 6.86820 32245 ft 432 kts 331°
2026-05-08 20:23 46.19143 6.85004 32627 ft 428 kts 330°
2026-05-08 20:23 46.21836 6.83198 32961 ft 426 kts 330°
2026-05-08 20:23 46.24520 6.81392 33257 ft 426 kts 330°
2026-05-08 20:24 46.27206 6.79578 33536 ft 426 kts 330°
2026-05-08 20:24 46.29885 6.77765 33781 ft 426 kts 330°
2026-05-08 20:24 46.32570 6.75945 34010 ft 426 kts 330°
2026-05-08 20:24 46.35221 6.74149 34064 ft 425 kts 330°
2026-05-08 20:25 46.40535 6.70487 34066 ft 419 kts 326°
2026-05-08 20:25 46.45005 6.65325 34071 ft 408 kts 308°
2026-05-08 20:26 46.48144 6.58563 34063 ft 405 kts 302°
2026-05-08 20:26 46.50017 6.55502 34068 ft 410 kts 314°
2026-05-08 20:26 46.52127 6.52711 34065 ft 410 kts 314°
2026-05-08 20:27 46.56331 6.47193 34059 ft 410 kts 314°
2026-05-08 20:27 46.60576 6.41625 34045 ft 411 kts 314°
2026-05-08 20:28 46.64819 6.36035 34042 ft 412 kts 314°
2026-05-08 20:28 46.69068 6.30410 34048 ft 413 kts 314°
2026-05-08 20:29 46.73288 6.24810 34049 ft 413 kts 314°
2026-05-08 20:29 46.77539 6.19162 34051 ft 414 kts 314°
2026-05-08 20:30 46.81796 6.13512 34073 ft 413 kts 314°
2026-05-08 20:30 46.86046 6.07852 34060 ft 413 kts 314°
2026-05-08 20:31 46.90292 6.02170 34046 ft 414 kts 314°
2026-05-08 20:31 46.94510 5.96509 34044 ft 415 kts 314°
2026-05-08 20:32 46.98765 5.90800 34044 ft 415 kts 314°
2026-05-08 20:32 47.03022 5.85080 34035 ft 415 kts 314°
2026-05-08 20:33 47.07271 5.79360 34065 ft 414 kts 314°
2026-05-08 20:33 47.11431 5.73755 33471 ft 399 kts 314°
2026-05-08 20:34 47.13444 5.71033 32748 ft 399 kts 314°
2026-05-08 20:34 47.15485 5.68258 31971 ft 401 kts 314°
2026-05-08 20:34 47.19593 5.62663 30440 ft 404 kts 315°
2026-05-08 20:35 47.21659 5.59847 30145 ft 406 kts 315°
2026-05-08 20:35 47.23734 5.57019 30001 ft 407 kts 315°
2026-05-08 20:35 47.25815 5.54186 30062 ft 408 kts 315°
2026-05-08 20:36 47.29973 5.48517 30050 ft 407 kts 315°
2026-05-08 20:36 47.34093 5.42880 30052 ft 407 kts 315°
2026-05-08 20:37 47.38234 5.37194 30054 ft 408 kts 315°
2026-05-08 20:37 47.42398 5.31476 30051 ft 409 kts 315°
2026-05-08 20:38 47.46535 5.25777 30046 ft 409 kts 315°
2026-05-08 20:38 47.50676 5.20045 30067 ft 408 kts 315°
2026-05-08 20:39 47.54817 5.14318 30069 ft 407 kts 315°
2026-05-08 20:39 47.58949 5.08601 30065 ft 406 kts 315°
2026-05-08 20:40 47.63075 5.02868 30060 ft 406 kts 315°
2026-05-08 20:40 47.67165 4.97166 30051 ft 407 kts 315°
2026-05-08 20:41 47.71288 4.91409 30067 ft 407 kts 315°
2026-05-08 20:41 47.75397 4.85656 30064 ft 406 kts 315°
2026-05-08 20:42 47.79495 4.79896 30065 ft 405 kts 315°
2026-05-08 20:42 47.83557 4.74177 30060 ft 404 kts 315°
2026-05-08 20:43 47.87638 4.68426 30057 ft 404 kts 315°
2026-05-08 20:43 47.91791 4.62578 30054 ft 419 kts 316°
2026-05-08 20:44 47.96032 4.56577 30052 ft 421 kts 315°
2026-05-08 20:44 48.00274 4.50549 30054 ft 421 kts 315°
2026-05-08 20:45 48.04482 4.44564 29370 ft 420 kts 315°
2026-05-08 20:45 48.05907 4.42533 28244 ft 421 kts 315°
2026-05-08 20:45 48.08698 4.38550 26390 ft 415 kts 315°
2026-05-08 20:45 48.10766 4.35594 25156 ft 409 kts 316°
2026-05-08 20:46 48.12807 4.32673 24007 ft 402 kts 316°
2026-05-08 20:46 48.14815 4.29804 22772 ft 397 kts 316°
2026-05-08 20:46 48.16792 4.26978 21811 ft 386 kts 315°
2026-05-08 20:46 48.18671 4.24293 21501 ft 362 kts 315°
2026-05-08 20:47 48.20445 4.21753 21101 ft 344 kts 315°
2026-05-08 20:47 48.22166 4.19277 20683 ft 343 kts 314°
2026-05-08 20:47 48.23860 4.16831 20265 ft 342 kts 314°
2026-05-08 20:47 48.25571 4.14358 19853 ft 343 kts 314°
2026-05-08 20:48 48.27282 4.11884 19411 ft 341 kts 314°
2026-05-08 20:48 48.28985 4.09426 18980 ft 339 kts 314°
2026-05-08 20:48 48.30680 4.06980 18530 ft 337 kts 313°
2026-05-08 20:48 48.32367 4.04536 18046 ft 336 kts 313°
2026-05-08 20:49 48.34043 4.02106 17584 ft 334 kts 313°
2026-05-08 20:49 48.35713 3.99683 17128 ft 333 kts 313°
2026-05-08 20:49 48.37374 3.97273 16681 ft 331 kts 314°
2026-05-08 20:49 48.39030 3.94869 16220 ft 330 kts 314°
2026-05-08 20:50 48.40661 3.92502 15779 ft 330 kts 314°
2026-05-08 20:50 48.42307 3.90113 15334 ft 329 kts 314°
2026-05-08 20:50 48.43951 3.87719 14885 ft 328 kts 314°
2026-05-08 20:50 48.45535 3.85161 14448 ft 341 kts 309°
2026-05-08 20:51 48.47078 3.82417 14164 ft 344 kts 308°
2026-05-08 20:51 48.48601 3.79623 13927 ft 345 kts 308°
2026-05-08 20:51 48.50111 3.76813 13667 ft 345 kts 307°
2026-05-08 20:51 48.51614 3.74005 13401 ft 344 kts 307°
2026-05-08 20:52 48.53117 3.71207 13132 ft 342 kts 307°
2026-05-08 20:52 48.54596 3.68461 12872 ft 341 kts 307°
2026-05-08 20:52 48.56090 3.65695 12610 ft 340 kts 307°
2026-05-08 20:52 48.57570 3.62954 12242 ft 334 kts 307°
2026-05-08 20:53 48.59040 3.60228 12043 ft 335 kts 307°
2026-05-08 20:53 48.60502 3.57483 12062 ft 335 kts 304°
2026-05-08 20:53 48.61683 3.54466 12065 ft 333 kts 293°
2026-05-08 20:53 48.62616 3.51259 12063 ft 333 kts 292°
2026-05-08 20:54 48.63540 3.48086 12057 ft 322 kts 292°
2026-05-08 20:54 48.64420 3.45073 12061 ft 305 kts 292°
2026-05-08 20:54 48.65259 3.42201 12062 ft 293 kts 292°
2026-05-08 20:54 48.66065 3.39434 12063 ft 290 kts 292°
2026-05-08 20:55 48.66877 3.36637 12064 ft 290 kts 292°
2026-05-08 20:55 48.67685 3.33850 12060 ft 290 kts 292°
2026-05-08 20:55 48.68493 3.31057 12062 ft 290 kts 292°
2026-05-08 20:55 48.69301 3.28260 12066 ft 291 kts 292°
2026-05-08 20:56 48.70434 3.25527 12070 ft 324 kts 309°
2026-05-08 20:56 48.71948 3.22914 12069 ft 335 kts 310°
2026-05-08 20:56 48.73507 3.20279 12068 ft 337 kts 310°
2026-05-08 20:56 48.75061 3.17675 12070 ft 337 kts 310°
2026-05-08 20:57 48.76638 3.15043 12067 ft 337 kts 310°
2026-05-08 20:57 48.78212 3.12404 12065 ft 337 kts 310°
2026-05-08 20:57 48.79779 3.09762 12073 ft 337 kts 310°
2026-05-08 20:57 48.81349 3.07104 11844 ft 337 kts 310°
2026-05-08 20:58 48.82905 3.04465 11595 ft 335 kts 310°
2026-05-08 20:58 48.84458 3.01829 11344 ft 334 kts 310°
2026-05-08 20:58 48.86003 2.99203 11102 ft 333 kts 310°
2026-05-08 20:58 48.87541 2.96582 10988 ft 332 kts 310°
2026-05-08 20:59 48.89054 2.93998 11005 ft 332 kts 310°
2026-05-08 20:59 48.90593 2.91375 11007 ft 332 kts 310°
2026-05-08 20:59 48.92109 2.88732 11006 ft 331 kts 306°
2026-05-08 20:59 48.93314 2.85776 11007 ft 329 kts 294°
2026-05-08 21:00 48.94083 2.82509 11007 ft 328 kts 282°
2026-05-08 21:00 48.94465 2.79093 11009 ft 327 kts 277°
2026-05-08 21:00 48.94803 2.75679 11010 ft 327 kts 277°
2026-05-08 21:00 48.95148 2.72259 11010 ft 327 kts 277°
2026-05-08 21:01 48.95488 2.68934 11008 ft 313 kts 278°
2026-05-08 21:01 48.95815 2.65744 10995 ft 299 kts 277°
2026-05-08 21:01 48.96132 2.62603 10527 ft 301 kts 277°
2026-05-08 21:01 48.96408 2.59515 10396 ft 289 kts 272°
2026-05-08 21:02 48.96325 2.56526 10200 ft 280 kts 259°
2026-05-08 21:02 48.95792 2.53700 9914 ft 277 kts 248°
2026-05-08 21:02 48.94932 2.51077 9612 ft 276 kts 238°
2026-05-08 21:02 48.93786 2.48755 9316 ft 272 kts 228°
2026-05-08 21:03 48.92591 2.46548 8879 ft 271 kts 242°
2026-05-08 21:03 48.92032 2.43830 8440 ft 271 kts 260°
2026-05-08 21:03 48.91765 2.41038 8112 ft 270 kts 262°
2026-05-08 21:03 48.91524 2.38200 8079 ft 272 kts 262°
2026-05-08 21:04 48.91283 2.35337 8082 ft 273 kts 262°
2026-05-08 21:04 48.91047 2.32516 8081 ft 261 kts 262°
2026-05-08 21:04 48.90827 2.29871 8078 ft 244 kts 262°
2026-05-08 21:04 48.90622 2.27398 8078 ft 229 kts 262°
2026-05-08 21:05 48.90426 2.25019 8078 ft 226 kts 262°
2026-05-08 21:05 48.90230 2.22652 8081 ft 226 kts 262°
2026-05-08 21:05 48.90035 2.20280 8081 ft 226 kts 262°
2026-05-08 21:05 48.89839 2.17917 8084 ft 226 kts 262°
2026-05-08 21:06 48.89636 2.15548 8086 ft 226 kts 262°
2026-05-08 21:06 48.89433 2.13211 8086 ft 226 kts 262°